Погода в Сретенске

Погода в Сретенске : погода сейчас, прогноз погоды и архив. Всё, что Вы хотите узнать о погоде в Сретенске!

Хотите узнать прогноз погоды в Сретенске? Тогда Вам сюда: Погода в Сретенске

Поиск расширенной информации на нашем сайте:

Другие новости

Новости СМИ2

Главная страница сайта

Новости сайта

03.07.2017

Напоминаем, что на нашем специализированном сайте Метеоцентр.Азия вы можете получить высокодетализированные автоматические прогнозы погоды по пунктам России, СНГ и мира в авиационном формате (включающие направление и скорость ветра, видимость, явления погоды, количество и форму облачности, нижнюю и верхнюю границу облачности).


Погода в Сретенске - сегодня

Время (UTC), дата Ветер
(°,м/с) 
Видим.   Явления Облачность Т
(°С)
Тd
(°С)
f(%) Тe
(°С)
Pmin
(гПа)
dP
(гПа)
Po
(мм)
O2
(г/м3)
Тmin Tmax R s Состояние
почвы
03 18.05.18 270 (З) 20000 м    1/0 верхняя 
[Ci fib]
+20.8 -6.3 16 +21  1008.2  -1.6  711  267           
06 18.05.18 310 (СЗ) 20000 м    8/0 верхняя 
[Ci fib]
+24.6 -7.3 11 +25  1005.1  -2.2  710  263           
09 18.05.18 250 (З) 20000 м    4/0 верхняя 
[Ci sp]
+25.9 -6.5 11 +26  1002.9  -1.8  708  261           
15 18.05.18 100 (В) 20000 м    8/8 600 м кучево-дожд. 
[Cb cap]
+13.9 -2.5 32 +14  1003.9  -0.7  707  271           
18 18.05.18 110 (В) 20000 м    3/0 верхняя 
[Ci sp]
+10.4 -1 45 +11  1003.6  -1  707  274           
21 18.05.18 100 (В) 20000 м    1/0 верхняя 
[Ci sp]
+9.4 -1 48 +10  1003.2  -0.5  706  275           
00 19.05.18 050 (СВ) 20000 м    4/3 1000 м верхняя 
[Sc|Ci sp]
+18.7 +2.4 34 +20  1000.4  -0.8  706  266  +9.4        сухая 
12 19.05.18 130 (ЮВ) 20000 м  {ливн. осадки}  9/4 1000 м кучево-дожд., верхняя 
[Cb cap|Ci sp]
+20.4 +2.9 31 +20  1000.6  1.5  706  264    +29.7  0.0     
15 19.05.18 120 (ЮВ) 20000 м    10/0 средняя 
[Ac As]
+18.5 +2 33 +19  1004.7  3.5  709  267           
18 19.05.18 070 (В) 20000 м    10/0 средняя 
[Ac As]
+16.3 -0.6 32 +16  1007.5  2.2  710  270           
21 19.05.18 060 (СВ) 2{10}  20000 м    1/0 средняя 
[Ac trans]
+12.7 -6 27 +13  1010.6  2.1  712  275           
00 20.05.18 080 (В) 6-10{11}  20000 м    ясно 
+15.5 -2.9 28 +15  1011.7  1.5  713  272  +12.7        сухая 
03 20.05.18 070 (В) 5{11}  20000 м    1/0 верхняя 
[Ci fib]
+19.5 +2.7 33 +20  1010.4  -0.3  713  268           
06 20.05.18 090 (В) 5{11}  20000 м    3/1 1000 м верхняя 
[Cu hum|Ci fib]
+23.2 +3.8 28 +23  1007.8  -1.7  712  264           
12 20.05.18 110 (В) 2{12}  20000 м    3/1 1000 м верхняя 
[Sc|Ci sp]
+16.1 +7 55 +17  1009.5  1.5  712  270    +24.4       
15 20.05.18 120 (ЮВ) 20000 м    10/8 1000 м верхняя 
[Sc|Ci sp]
+14.8 +7.2 60 +15  1009.2  -0.6  711  271           
18 20.05.18 120 (ЮВ) 20000 м    6/4 1000 м верхняя 
[Sc|Ci sp]
+13.5 +7.7 68 +14  1008.5  -0.9  711  271           
21 20.05.18 100 (В) 20000 м    9/4 1000 м верхняя 
[Sc|Ci sp]
+13.8 +7.4 65 +14  1006.8  -1.5  710  271           
00 21.05.18 110 (В) 20000 м  гроза без осадков  10/5 600 м кучево-дожд., верхняя 
[Cb cap|Cs]
+18.9 +5.8 42 +19  1002.2  -3.3  707  265  +12.8        сухая 
03 21.05.18 200 (Ю) 4{11}  20000 м    8/4 1000 м верхняя 
[Cu Sc|Ci sp]
+24.2 +8.2 36 +24  998.8  -2.2  705  260           
12 21.05.18 250 (З) 6-10{12}  20000 м  {ливн. осадки}  10/10 1000 м кучево-дожд. 
[Cb cap]
+10.7 +4.8 67 +9  1000.9  -0.5  705  272    +24.9  0.4     
00 22.05.18 250 (З) 9-12{14}  20000 м  {дождь}  9/1 1000 м средняя, верхняя 
[Sc|Ac As|Ci sp]
+3.1 -4.6 57 -1  1001.1  704  281  +1.9      влажная 
12 22.05.18 170 (Ю) 3{10}  20000 м  {ливн. осадки}  8/4 600 м кучево-дожд., верхняя 
[Cb cap|Ci sp]
+2.1 +0.5 89 +1  994.3  -0.7  699  279    +8.1  0.6     
15 22.05.18 190 (Ю) 20000 м    10/10 600 м кучево-дожд. 
[Cb cap]
+2.8 +0.5 85 +1  992.3  -1.7  698  278           
18 22.05.18 210 (ЮЗ) 20000 м    10/10 1000 м кучево-дожд. 
[Cb cap]
+2.6 +0.7 87 +2  991.3  -1  697  278           
Время (UTC), дата Ветер
(°,м/с) 
Видим.   Явления Облачность Т
(°С)
Тd
(°С)
f(%) Тe
(°С)
Pmin
(гПа)
dP
(гПа)
Po
(мм)
O2
(г/м3)
Тmin Tmax R s Состояние
почвы

Для получения пояснительной информации подведите курсор к названию столбца.

ПОГОДА в Сретенске - архив

Всё, что Вы хотите узнать о погоде в Сретенске - удобно и подробно!

Выберите нужную дату (начиная с 1 января 2015* года) и нажмите кнопку "Найти".
Будут отображены архивные сводки погоды по пункту Сретенск, начиная с указанной даты.


Отображать данные в формате CSV (для использования в таблицах Excel)


Внимание! Наш архив погоды предназначен исключительно для личного некоммерческого использования в познавательных целях. Если Вам необходимы официальные справки о состоянии погоды (для производственных, юридических, коммерческих и т.п. целей), обращайтесь в органы Росгидромета.

*Примечание: данная дата относится к архиву по метеостанциям СССР (Россия, СНГ, Балтия).
Архив по метеостанциям Зарубежной Европы и Азии (кроме Китая) хранится 10 дней, по другим регионам земного шара (Китай, Африка, Америка, Австралия, Океания) - 1 день.

Сретенск - район местоположения метеостанции


Название, широта, долгота, высота метеостанции:
Сретенск 52.2°ш. 117.7°д. 525 м над ур. моря [Российская Федерация]

Дополнительная информация

В oтличие oт бoльшинства пoгoдных сайтoв мы публикуем пoдрoбную метеoинфoрмацию в детальнoм прoфессиoнальнoм фoрмате.

Характеристики температуры и влажнoсти вoздуха измеряются на высoте 2 м в тени вдали oт зданий и деревьев.
Скoрoсть ветра измеряется на высoте 10 м (на урoвне рoста челoвека скoрoсть ветра ниже в 1.5-2 раза). Если метеoстанция нахoдится в гoрoде или в лесу, тo скoрoсть ветра занижена на 2-4 м/с пo сравнению с oткрытым местoм. Скoрoсть ветра над акватoриями крупных рек и oзёр, а также на вершинах хoлмoв на 2-5 м/с выше, чем в oбычных услoвиях.
Атмoсфернoе давление в разных тoчках местнoсти мoжет значительнo oтличаться oт давления на метеoстанции, в зависимoсти oт услoвий рельефа (при пoдъёме на 10 м давление пoнижается примернo на 1 мм рт.ст.).